Weather History for Meriden, CT

Change the Weather History Date:

Friday, February 1, 2013

  Actual Average (KHVN) Record (KHVN)
Temperature  
Mean Temperature 24 °F -  
Max Temperature 30 °F 36 °F 42 °F (2014)
Min Temperature 19 °F 23 °F 28 °F (2014)
Degree Days  
Heating Degree Days 40    
Moisture  
Dew Point 7 °F    
Average Humidity 44    
Maximum Humidity 57    
Minimum Humidity 35    
Precipitation  
Precipitation 0.00 in - - ()
Sea Level Pressure  
Sea Level Pressure 29.91 in    
Wind  
Wind Speed 9 mph (West)    
Max Wind Speed 15 mph    
Max Gust Speed 30 mph    
Visibility 10 miles    
Events      
Averages and records for this station are not official NWS values.
T = Trace of Precipitation, MM = Missing Value Source: NWS Daily Summary

Daily Weather History Graph

Daily Weather History Graph

Search for Another Location

Airport:

Trip Planner

Search our weather history database for the weather conditions in past years. The results will help you decide how hot, cold, wet, or windy it might be!

Date:

Astronomy

Feb. 01, 2013 Rise Set
Actual Time 7:02 AM EST 5:07 PM EST
Civil Twilight 6:33 AM EST 5:36 PM EST
Nautical Twilight 6:00 AM EST 6:10 PM EST
Astronomical Twilight 5:27 AM EST 6:42 PM EST
Moon 11:17 PM EST 9:29 AM EST
Length of Visible Light 11h 03m
Length of Day
10h 04m
Waning Gibbous, 70% of the Moon is Illuminated
Feb 1
Waning Gibbous
Feb 3
Last Quarter
Feb 10
New
Feb 17
First Quarter
Feb 25
Full

Hourly Weather History & Observations

Time (EST) Temp. Windchill Dew Point Humidity Pressure Visibility Wind Dir Wind Speed Gust Speed Precip Events Conditions
12:53 AM 30.0 °F 21.1 °F 9.0 °F 41% 29.72 in 10.0 mi West 10.4 mph 29.9 mph N/A   Clear
1:53 AM 28.9 °F 21.1 °F 7.0 °F 40% 29.74 in 10.0 mi WSW 8.1 mph 19.6 mph N/A   Clear
2:53 AM 28.0 °F 19.3 °F 7.0 °F 41% 29.75 in 10.0 mi WSW 9.2 mph - N/A   Clear
3:53 AM 27.0 °F 19.5 °F 9.0 °F 47% 29.76 in 10.0 mi WSW 6.9 mph - N/A   Clear
4:53 AM 27.0 °F 19.5 °F 9.0 °F 47% 29.76 in 10.0 mi SSW 6.9 mph - N/A   Clear
5:53 AM 26.1 °F 17.6 °F 10.0 °F 51% 29.78 in 10.0 mi SSW 8.1 mph - N/A   Clear
6:53 AM 26.1 °F 19.4 °F 10.9 °F 53% 29.81 in 10.0 mi SW 5.8 mph - N/A   Clear
7:53 AM 27.0 °F 20.5 °F 12.0 °F 53% 29.84 in 10.0 mi SW 5.8 mph - N/A   Clear
8:53 AM 28.9 °F 17.7 °F 10.9 °F 47% 29.85 in 10.0 mi West 15.0 mph 21.9 mph N/A   Clear
9:53 AM 30.0 °F 21.7 °F 9.0 °F 41% 29.84 in 10.0 mi WNW 9.2 mph 21.9 mph N/A   Partly Cloudy
10:53 AM 30.0 °F 20.0 °F 9.0 °F 41% 29.86 in 10.0 mi West 12.7 mph 18.4 mph N/A   Mostly Cloudy
11:53 AM 30.9 °F 20.7 °F 8.1 °F 38% 29.83 in 10.0 mi NW 13.8 mph 19.6 mph N/A   Overcast
1:53 PM 30.0 °F 20.5 °F 5.0 °F 35% 29.84 in 10.0 mi NW 11.5 mph 20.7 mph N/A   Mostly Cloudy
2:53 PM 30.0 °F 19.5 °F 5.0 °F 35% 29.86 in 10.0 mi WNW 13.8 mph 18.4 mph N/A   Overcast
3:53 PM 30.0 °F 19.1 °F 7.0 °F 38% 29.91 in 10.0 mi NNW 15.0 mph 21.9 mph N/A   Overcast
4:53 PM 27.0 °F 16.1 °F 10.9 °F 51% 29.96 in 9.0 mi WNW 12.7 mph 20.7 mph 0.00 in   Overcast
5:53 PM 27.0 °F 16.1 °F 3.9 °F 37% 30.01 in 10.0 mi NW 12.7 mph 27.6 mph N/A   Partly Cloudy
6:53 PM 25.0 °F 14.2 °F 3.0 °F 39% 30.07 in 10.0 mi NW 11.5 mph 19.6 mph N/A   Clear
7:53 PM 24.1 °F 17.0 °F 3.0 °F 40% 30.09 in 10.0 mi NW 5.8 mph - N/A   Clear
8:53 PM 23.0 °F 17.0 °F 3.9 °F 44% 30.12 in 10.0 mi NW 4.6 mph - N/A   Clear
9:53 PM 21.9 °F - 5.0 °F 48% 30.14 in 10.0 mi Calm Calm - N/A   Clear
10:53 PM 19.9 °F 14.9 °F 7.0 °F 57% 30.16 in 10.0 mi WNW 3.5 mph - N/A   Clear
11:53 PM 21.0 °F 14.6 °F 5.0 °F 50% 30.17 in 10.0 mi Variable 4.6 mph - N/A   Clear